Weather History for Middletown, PA

Change the Weather History Date:

Friday, October 12, 2012

  Actual Average Record
Temperature  
Mean Temperature 46 °F 56 °F  
Max Temperature 57 °F 65 °F 88 °F (1954)
Min Temperature 35 °F 46 °F 27 °F (1964)
Degree Days  
Heating Degree Days 19 10  
Month to date heating degree days 106 98  
Since 1 July heating degree days 159 170  
Cooling Degree Days 0 0  
Month to date cooling degree days 5 10  
Year to date cooling degree days 1226 1003  
Moisture  
Dew Point 34 °F    
Average Humidity 62    
Maximum Humidity 92    
Minimum Humidity 32    
Precipitation  
Precipitation T in 0.11 in 2.32 in (1896)
Month to date precipitation 0.98 1.44  
Year to date precipitation 34.78 32.45  
Snow  
Snow 0.00 in - - ()
Month to date snowfall 0.0  
Since 1 July snowfall 0.0  
Since 1 September snowfall 0.0  
Snow Depth 0.00 in    
Sea Level Pressure  
Sea Level Pressure 30.25 in    
Wind  
Wind Speed 6 mph (NNW)    
Max Wind Speed 22 mph    
Max Gust Speed 28 mph    
Visibility 10 miles    
Events Rain    
T = Trace of Precipitation, MM = Missing Value Source: NWS Daily Summary

Daily Weather History Graph

Daily Weather History Graph

Search for Another Location

Airport:

Trip Planner

Search our weather history database for the weather conditions in past years. The results will help you decide how hot, cold, wet, or windy it might be!

Date:

Astronomy

Oct. 12, 2012 Rise Set
Actual Time 7:15 AM EDT 6:31 PM EDT
Civil Twilight 6:47 AM EDT 6:58 PM EDT
Nautical Twilight 6:16 AM EDT 7:29 PM EDT
Astronomical Twilight 5:44 AM EDT 8:01 PM EDT
Moon 3:55 AM EDT (10/12) 4:39 PM EDT (10/12)
Length of Visible Light 12h 10m
Length of Day
11h 16m
Waning Crescent, 11% of the Moon is Illuminated
Oct 12
Waning Crescent
Oct 15
New
Oct 21
First Quarter
Oct 29
Full
Nov 6
Last Quarter

Hourly Weather History & Observations

Time (EDT) Temp. Windchill Dew Point Humidity Pressure Visibility Wind Dir Wind Speed Gust Speed Precip Events Conditions
12:56 AM 44.6 °F - 37.4 °F 76% 30.15 in 10.0 mi Calm Calm - N/A   Clear
1:56 AM 42.1 °F - 37.9 °F 85% 30.15 in 10.0 mi Calm Calm - N/A   Clear
2:56 AM 41.0 °F - 37.9 °F 89% 30.14 in 10.0 mi Calm Calm - N/A   Clear
3:56 AM 37.9 °F - 36.0 °F 93% 30.13 in 10.0 mi Calm Calm - N/A   Clear
4:56 AM 37.9 °F - 35.1 °F 89% 30.13 in 10.0 mi Calm Calm - N/A   Partly Cloudy
5:56 AM 39.9 °F - 37.9 °F 93% 30.12 in 10.0 mi Calm Calm - N/A   Scattered Clouds
6:56 AM 43.0 °F - 39.9 °F 89% 30.13 in 10.0 mi Calm Calm - N/A   Scattered Clouds
7:56 AM 43.0 °F - 39.0 °F 86% 30.14 in 10.0 mi Calm Calm - N/A   Clear
8:56 AM 48.0 °F - 39.0 °F 71% 30.17 in 10.0 mi NW 9.2 mph - N/A   Clear
9:56 AM 54.0 °F - 39.0 °F 57% 30.18 in 10.0 mi NW 10.4 mph - 0.00 in Rain Light Rain
10:56 AM 55.0 °F - 37.0 °F 51% 30.21 in 10.0 mi NNW 18.4 mph 26.5 mph 0.00 in Rain Light Rain
11:56 AM 55.9 °F - 37.9 °F 51% 30.24 in 10.0 mi NNW 12.7 mph - 0.00 in Rain Light Rain
12:56 PM 55.9 °F - 35.1 °F 45% 30.25 in 10.0 mi NW 17.3 mph 25.3 mph 0.00 in Rain Light Rain
1:56 PM 55.9 °F - 32.0 °F 40% 30.27 in 10.0 mi North 10.4 mph 24.2 mph 0.00 in   Scattered Clouds
2:56 PM 55.4 °F - 30.2 °F 38% 30.25 in 10.0 mi NNW 15.0 mph 21.9 mph N/A   Scattered Clouds
3:56 PM 53.6 °F - 30.2 °F 41% 30.26 in 10.0 mi NNW 12.7 mph - N/A   Mostly Cloudy
4:56 PM 55.9 °F - 28.9 °F 36% 30.28 in 10.0 mi North 11.5 mph - N/A   Scattered Clouds
5:56 PM 54.0 °F - 24.1 °F 31% 30.30 in 10.0 mi North 11.5 mph - N/A   Scattered Clouds
6:56 PM 51.8 °F - 26.6 °F 38% 30.33 in 10.0 mi North 5.8 mph - N/A   Clear
7:56 PM 48.0 °F - 27.0 °F 44% 30.36 in 10.0 mi Calm Calm - N/A   Clear
8:56 PM 44.6 °F 43.1 °F 28.4 °F 53% 30.38 in 10.0 mi North 3.5 mph - N/A   Clear
9:56 PM 39.9 °F - 28.9 °F 65% 30.41 in 10.0 mi Calm Calm - N/A   Clear
10:56 PM 39.0 °F 35.7 °F 30.0 °F 70% 30.45 in 10.0 mi WNW 4.6 mph - N/A   Clear
11:56 PM 37.4 °F - 32.0 °F 81% 30.46 in 10.0 mi Calm Calm - N/A   Clear